Volver al catálogo

NATO 4A R/B

PAM-D

ActivoGTO
NORAD 21049·ROCKET BODY·🇺🇸 United States

Lanzado Jan 8, 1991 desde Cape Canaveral Space Force Station

Loading…

TLE

ObsoletoSource: Space-Track

Época: Sep 13, 2026, 17:38 UTC

1 21049U 91001C   26256.73488120 -.00000092  00000-0  31191-2 0  9990
2 21049  25.9757 313.5262 7074974 256.9285  24.3212  2.26577476295321

Sigue NATO 4A R/B en tiempo real con AllMySat

Download on the App Store